Location: Syracuse
(43.0480°N, 76.1480°W)
Time: 00:52:35
(UTC-04:00)

Daily predictions for brighter satellites

Satellite Brightness Start Highest point End
(mag) Time Altitude Azimuth Time Altitude Azimuth Time Altitude Azimuth
Okean 1 3.8 00:00:36 10° N 00:03:54 59° N 00:03:54 59° N
Meteor 1-18 Rocket 4.4 00:02:30 10° NNW 00:08:10 67° W 00:09:08 57° SW
Cosmos 1782 Rocket 4.1 00:09:07 52° W 00:09:15 52° W 00:13:34 10° N
Meteor 2-4 Rocket 4.4 00:07:43 10° N 00:12:43 38° ENE 00:13:14 37° E
Cosmos 2369 4.4 00:13:22 39° E 00:13:22 39° E 00:18:10 10° NE
CZ-4C R/B 4.5 00:07:51 10° NNW 00:13:38 28° NE 00:19:58 10° E
Lacrosse 5 rocket 4.1 00:12:07 10° WNW 00:14:32 16° NNW 00:17:01 10° NNE
Cosmos 405 Rocket 4.1 00:15:20 10° NNW 00:17:52 32° WNW 00:17:52 32° WNW
Cosmos 1980 Rocket 4.3 00:21:57 13° E 00:21:57 13° E 00:23:47 10° ENE
Cosmos 1633 4.0 00:25:24 36° NNW 00:25:24 36° NNW 00:27:42 10° N
APEX 4.0 00:20:17 10° NNW 00:24:04 54° N 00:24:04 54° N
CZ-4B R/B 4.4 00:21:10 10° N 00:25:50 40° WNW 00:26:59 35° WSW
BREEZE-M DEB 4.3 00:21:17 10° WNW 00:26:42 33° N 00:27:27 29° NNE
ALOS 2 2.9 00:28:20 65° NNE 00:28:20 65° NNE 00:32:11 10° N
CZ-4B R/B 4.2 00:30:50 14° NE 00:30:50 14° NE 00:32:13 10° NNE
Cosmos 1975 Rocket 4.3 00:26:50 10° NNW 00:30:38 33° W 00:30:38 33° W
Cosmos 2151 Rocket 3.9 00:40:41 63° NNW 00:40:41 63° NNW 00:44:33 10° N
S3M 4.3 00:39:29 10° NNW 00:45:22 51° W 00:46:18 47° WSW
Cosmos 2297 Rocket 2.0 00:42:14 10° NNW 00:47:57 85° ENE 00:48:16 79° SE
Cosmos 883 Rocket 4.3 00:42:00 10° N 00:48:14 89° E 00:48:56 72° S
Cosmos 1697 Rocket 3.4 00:49:13 40° E 00:49:13 40° E 00:53:54 10° NE
Cosmos 1536 Rocket 4.3 00:50:12 10° NNW 00:53:43 49° NW 00:53:43 49° NW
GP-B 3.5 00:54:50 10° N 00:58:32 61° N 00:58:32 61° N
Cosmos 1300 Rocket 4.1 01:02:18 57° N 01:02:18 57° N 01:05:52 10° N
Cosmos 921 Rocket 4.1 01:04:45 37° NE 01:04:45 37° NE 01:07:37 10° NNE
ATLAS CENTAUR R/B 3.3 01:05:54 22° WNW 01:06:31 23° NW 01:09:38 10° N
Cosmos 1371 Rocket 4.0 01:07:59 74° WNW 01:08:01 74° WNW 01:13:15 10° NNE
Cosmos 2082 3.8 01:05:06 10° NNW 01:10:39 63° WSW 01:10:39 63° WSW
Cosmos 2322 Rocket 4.4 01:11:23 12° E 01:11:29 12° E 01:13:44 10° ENE
Cosmos 2278 3.8 01:12:16 63° WSW 01:12:53 69° WNW 01:18:34 10° NNE
ISS -0.9 01:12:35 10° NW 01:14:53 18° N 01:17:12 10° NE
Cosmos 1190 Rocket 3.9 01:10:26 10° NNW 01:15:26 81° NW 01:15:26 81° NW
Okean 2 4.3 01:11:46 10° N 01:14:56 45° NNE 01:14:56 45° NNE
Landsat 5 4.5 01:20:19 40° NNE 01:20:19 40° NNE 01:23:03 10° N
USA 234 4.1 01:15:54 10° ENE 01:21:04 32° ESE 01:21:04 32° ESE
Cosmos 676 Rocket 4.0 01:20:50 10° NNW 01:26:04 71° ENE 01:26:14 71° E
Mayak -0.3 01:23:25 10° N 01:26:48 43° NW 01:26:48 43° NW
Cosmos 1536 4.2 01:30:56 33° NW 01:30:56 33° NW 01:33:53 10° N
Cosmos 1624 Rocket 4.4 01:32:23 53° W 01:32:47 55° WNW 01:38:02 10° NNE
Cosmos 1745 Rocket 4.3 01:32:55 50° ESE 01:33:49 54° E 01:39:48 10° NNE
Cosmos 2227 Rocket 3.3 01:31:49 10° NW 01:36:06 31° W 01:36:06 31° W
Cosmos 407 Rocket 3.8 01:34:03 10° NNW 01:38:54 58° W 01:38:54 58° W
USA 229 DEB 3.6 01:38:23 57° SW 01:39:56 85° NW 01:46:57 10° NE
USA 229 3.6 01:38:31 58° SW 01:40:02 85° NW 01:47:02 10° NE
CZ-2C R/B 4.3 01:36:43 10° NNW 01:40:41 23° WNW 01:42:04 20° W
Okean 1 Rocket 4.0 01:41:28 39° NW 01:41:28 39° NW 01:44:59 10° N
Cosmos 2315 Rocket 4.4 01:35:47 10° NNW 01:41:41 48° W 01:42:16 46° WSW
Okean 1-7 Rocket 4.3 01:38:00 10° NNW 01:41:23 46° NW 01:41:23 46° NW
SL-08 R/B 4.4 01:42:28 65° SSE 01:43:22 79° E 01:49:42 10° N
Cosmos 1140 Rocket 3.5 01:40:16 10° NNW 01:45:27 72° ENE 01:45:42 70° E
NOSS 3-1 (A) 4.1 01:46:02 37° ESE 01:46:06 37° ESE 01:51:49 10° NE
Cosmos 1023 Rocket 4.4 01:41:53 10° NNW 01:47:03 75° ENE 01:47:16 74° E
Cosmos 1455 Rocket 3.7 01:52:30 49° ENE 01:52:30 49° ENE 01:56:13 10° NNE
Cosmos 1656 4.4 01:53:47 37° W 01:54:52 41° WNW 02:00:06 10° NNE
Cosmos 2263 Rocket 4.0 01:50:54 10° N 01:55:46 28° NE 02:00:36 10° ESE
CZ-4B R/B 3.6 02:04:25 22° NW 02:04:25 22° NW 02:05:59 10° NNW
CZ-4C R/B 2.8 01:55:53 10° NW 02:03:05 89° NE 02:06:48 35° SE
Cosmos 2360 Rocket 4.4 02:02:23 12° ESE 02:03:52 13° E 02:06:27 10° ENE
Cosmos 1980 Rocket 2.0 02:03:42 73° SW 02:04:15 83° WNW 02:09:55 10° NNE
Cosmos 1743 3.7 02:08:03 43° NE 02:08:03 43° NE 02:11:02 10° NNE
Cosmos 1954 Rocket 4.1 02:02:22 10° NNW 02:07:16 60° W 02:07:16 60° W
Cosmos 1238 Rocket 3.8 02:04:03 10° NNW 02:09:06 58° W 02:09:20 57° WSW
PSLV R/B 3.7 02:06:32 10° NNE 02:11:18 88° ENE 02:11:18 88° ENE
Cosmos 1500 4.5 02:19:20 34° NW 02:19:20 34° NW 02:22:02 10° N
Cosmos 1975 3.6 02:23:32 45° NW 02:23:32 45° NW 02:26:51 10° N
Cosmos 1602 Rocket 3.8 02:20:41 10° N 02:25:06 60° E 02:25:20 59° E
Cosmos 1437 Rocket 3.5 02:27:15 49° E 02:27:15 49° E 02:31:03 10° NNE
H-2A R/B 3.1 02:25:09 10° N 02:28:35 44° NW 02:28:35 44° NW
Cosmos 1452 Rocket 4.1 02:28:49 42° W 02:29:36 45° WNW 02:34:41 10° N
NOSS 3-1 (C) 3.3 02:29:04 56° SW 02:30:26 81° NW 02:36:59 10° NE
Cosmos 2297 Rocket 4.3 02:28:31 10° WNW 02:30:03 13° W 02:30:03 13° W
USA 81 3.9 02:26:05 10° N 02:31:23 81° W 02:32:00 69° SSW
Cosmos 1697 Rocket 3.9 02:30:56 26° W 02:32:43 31° NW 02:37:43 10° N
Meteor 1-21 4.3 02:28:25 10° N 02:34:01 74° ENE 02:35:37 47° SSE
Cosmos 1850 Rocket 3.9 02:34:55 10° NNW 02:40:14 67° WSW 02:40:44 63° SW
Nadezhda 1 Rocket 4.2 02:34:38 10° NNW 02:40:29 50° W 02:41:30 45° WSW
Cosmos 1709 Rocket 3.8 02:42:48 51° S 02:44:30 90° W 02:50:39 10° N
SL-16 R/B 2.2 02:44:16 55° S 02:45:31 76° ESE 02:51:12 10° NNE
Helios 1A Rocket 2.8 02:43:10 10° NNE 02:47:07 82° NW 02:47:07 82° NW
Cosmos 44 Rocket 4.4 02:44:43 10° NNW 02:49:14 42° NE 02:53:44 10° ESE
BREEZE M DEB (TANK) 3.2 02:48:29 39° WSW 02:50:23 75° NNW 02:53:14 10° ENE
Meteor 2-9 Rocket 4.4 02:49:06 44° SSE 02:50:57 70° E 02:56:49 10° NNE
ISS -1.9 02:49:09 10° NW 02:52:06 30° NNE 02:55:02 10° E
Cosmos 2322 Rocket 2.1 02:53:12 53° SSW 02:54:38 89° ESE 03:00:24 10° NNE
Cosmos 1110 Rocket 4.1 02:54:55 49° SSE 02:56:08 66° ESE 03:01:16 10° NNE
Meteor 1-4 Rocket 4.0 02:55:54 27° ESE 02:56:14 27° E 02:59:18 10° NNE
SL-16 R/B 2.9 02:55:29 18° SSE 03:00:08 63° ENE 03:06:19 10° N
Cosmos 1626 Rocket 3.9 02:57:34 10° NNW 03:01:42 49° W 03:01:42 49° W
USA 234 3.3 02:58:28 10° NE 03:05:01 75° NW 03:08:23 31° WSW
Cosmos 1666 3.5 03:07:17 39° WNW 03:07:17 39° WNW 03:10:40 10° N
Resurs 1-4 Rocket 2.4 03:12:45 10° NNE 03:18:00 62° E 03:20:23 32° S
IRS-1C 4.1 03:12:50 10° NNE 03:18:13 89° ESE 03:20:14 40° SSW
Cosmos 2184 Rocket 4.1 03:15:20 29° S 03:18:40 70° E 03:24:48 10° NNE
Cosmos 2181 Rocket 4.2 03:13:14 10° NNW 03:19:30 59° W 03:22:06 35° SSW
Cosmos 1461 4.3 03:16:46 10° NW 03:19:15 26° W 03:19:15 26° W
Cosmos 1825 Rocket 3.5 03:17:31 10° N 03:21:58 84° E 03:23:29 41° SSE
Cosmos 1758 Rocket 3.9 03:18:50 10° N 03:23:09 63° E 03:25:18 28° SSE
ARIANE 5 R/B 2.9 03:19:00 10° NNE 03:24:05 60° ESE 03:26:38 29° S
BREEZE-M DEB (TANK) 3.7 03:22:34 10° W 03:28:09 35° NNW 03:30:41 10° NE
Meteor 2-13 Rocket 4.4 03:26:02 33° SSW 03:28:58 83° W 03:35:10 10° N
ADEOS Rocket 3.1 03:22:44 10° N 03:29:00 63° WNW 03:31:34 34° SW
ATLAS 2AS CENTAUR R/B 3.6 03:26:52 23° S 03:31:34 50° ESE 03:39:18 10° NE
BREEZE M DEB (TANK) 2.0 03:32:31 73° NNW 03:32:39 77° NNE 03:36:11 10° ESE
SL-08 ROCKET BODY 4.5 03:31:22 33° SSW 03:34:09 66° W 03:40:11 10° N
NPP 4.1 03:29:02 10° N 03:34:12 49° WNW 03:36:18 32° WSW
Cosmos 1842 4.3 03:32:17 10° NNW 03:35:25 29° W 03:35:25 29° W
Lacrosse 5 rocket 4.3 03:32:59 10° NNW 03:35:45 18° NNE 03:38:37 10° ENE
NOSS 3-1 (A) 4.2 03:33:28 23° WSW 03:36:50 44° NW 03:43:11 10° NNE
CZ-2D R/B 2.1 03:32:23 10° NNE 03:37:55 90° NE 03:40:47 30° SSW
Cosmos 1331 Rocket 4.1 03:36:02 36° SW 03:37:59 61° WNW 03:43:06 10° NNE
SL-08 R/B 3.8 03:37:31 35° WSW 03:38:06 36° W 03:42:22 10° NNW
BREEZE-M DEB (TANK) 4.5 03:36:06 20° SSE 03:38:40 31° ESE 03:49:52 10° ENE
Cosmos 1271 Rocket 4.3 03:36:10 16° SSE 03:38:42 32° E 03:42:17 10° NNE
Cosmos 2228 3.6 03:36:56 25° SSE 03:39:12 52° E 03:43:22 10° NNE
ERS-1 4.4 03:34:28 10° NNE 03:39:34 82° WNW 03:41:54 33° SSW
Cosmos 2263 Rocket 2.4 03:34:27 10° NW 03:39:55 49° WSW 03:42:29 29° SSW
UNKNOWN OBJECT B 3.8 03:36:21 10° NNE 03:39:58 39° E 03:42:04 21° SSE
Cosmos 220 Rocket 4.4 03:37:49 10° NW 03:41:45 39° WSW 03:42:06 38° WSW
Cosmos 1184 Rocket 4.3 03:38:42 10° N 03:41:48 35° ENE 03:44:29 12° SE
NOSS 2-3 (E) 4.0 03:41:49 33° SSW 03:43:53 69° ESE 03:49:19 10° NE
Cosmos 2360 Rocket 2.1 03:44:09 30° SSW 03:47:02 86° WNW 03:52:44 10° NNE
Nadezhda 3 Rocket 4.4 03:41:49 10° N 03:48:01 65° E 03:54:15 10° SSE
Cosmos 1980 Rocket 4.3 03:45:53 10° W 03:49:09 15° NW 03:52:26 10° N
Cosmos 44 2.9 03:44:58 10° NW 03:49:18 66° WSW 03:53:45 10° SSE
COSMOS 2428 3.5 03:45:35 18° S 03:49:35 46° ESE 03:55:03 10° NE
CZ-4C R/B 4.0 03:45:46 10° WNW 03:51:06 22° WSW 03:51:52 21° WSW
DELTA 2 R/B (1) 4.0 03:49:16 30° SSW 03:51:27 44° SSE 03:56:42 10° E
Cosmos 2219 Rocket 3.8 03:46:56 10° SSE 03:51:42 28° ESE 03:56:29 10° NE
Cosmos 2074 Rocket 4.1 03:49:39 26° SSW 03:53:12 63° W 03:59:29 10° N
OAO 3 Rocket 4.1 03:54:40 27° SSW 03:55:37 30° S 03:59:51 10° ESE
Cosmos 1486 Rocket 4.0 03:51:16 10° NNW 03:56:33 69° WSW 04:01:31 11° S
Cosmos 2058 Rocket 3.0 03:56:09 27° SSW 03:58:37 83° W 04:03:10 10° N
Cosmos 972 Rocket 4.3 03:55:44 19° S 03:59:07 59° ESE 04:04:01 10° NNE
Cosmos 1953 Rocket 3.8 03:55:10 10° NNW 03:59:31 53° W 04:01:44 27° SSW
Cosmos 1844 Rocket 3.4 03:55:04 10° NNW 04:00:41 57° ENE 04:06:15 10° SE
ATLAS 3B R/B 3.3 03:57:29 10° NNW 04:04:11 58° NE 04:10:36 10° SE
MOZ.5/SAFIR/RUBIN 5/SL-8 3.7 04:01:10 13° S 04:05:20 80° WSW 04:10:00 10° NNW
MOS 1 Rocket 3.1 04:00:51 10° N 04:05:26 73° WNW 04:07:59 24° SSW
Centaur D AC-29 3.4 04:03:54 15° S 04:05:37 17° SSE 04:11:39 10° ESE
Meteor 2-5 Rocket 3.7 04:02:36 10° NNW 04:08:16 81° W 04:14:01 10° S
Cosmos 2333 Rocket 3.7 04:03:49 10° SSE 04:08:46 32° ESE 04:13:44 10° NE
Cosmos 1354 Rocket 4.1 04:03:39 10° NNW 04:08:59 81° ENE 04:14:18 10° SSE
BREEZE M DEB (TANK) 4.0 04:08:10 10° NW 04:10:19 28° N 04:14:26 10° ENE
Cosmos 2322 3.8 04:06:53 23° SW 04:10:25 68° WNW 04:16:05 10° NNE
Cosmos 2154 Rocket 4.0 04:07:32 16° S 04:12:48 84° W 04:19:08 10° N
Okean O Rocket 3.9 04:10:01 10° NE 04:13:27 21° E 04:16:51 10° SE
SeaSat 1 3.8 04:10:01 10° SE 04:14:38 42° NE 04:19:17 10° NNW
Cosmos 1544 4.5 04:13:18 10° SSE 04:16:44 37° E 04:20:12 10° NNE
Meteor 1-24 Rocket 3.9 04:11:27 10° N 04:16:51 74° E 04:22:23 10° SSE
NOSS 2-3 (C) 4.1 04:14:04 22° SW 04:17:07 67° NW 04:22:42 10° NNE
SL-8 R/B 3.7 04:14:20 22° WSW 04:17:27 85° SSE 04:22:19 10° ENE
Iridium 4 Rocket 4.2 04:18:26 19° SSW 04:22:24 45° W 04:27:49 10° N
Cosmos 1707 3.2 04:19:13 10° NNW 04:22:50 39° W 04:25:01 20° SSW
Cosmos 1726 Rocket 4.5 04:21:10 21° WSW 04:23:20 32° WNW 04:27:20 10° N
Cosmos 2278 Rocket 3.9 04:19:20 10° N 04:24:35 37° ENE 04:29:48 10° ESE
USA 238 DEB 4.2 04:18:19 10° NNW 04:25:24 67° NE 04:32:30 10° SE
USA 238 4.2 04:18:26 10° NNW 04:25:30 66° NE 04:32:37 10° SE
Cosmos 1766 3.4 04:22:42 12° S 04:26:13 75° E 04:30:10 10° NNE
ADEOS 4.1 04:21:45 10° N 04:26:40 43° WNW 04:30:19 17° SW
ISS -3.6 04:25:30 10° WNW 04:28:40 47° SW 04:31:49 10° SE
SL-16 R/B 4.0 04:26:15 10° W 04:30:16 19° NW 04:34:18 10° N
Cosmos 44 Rocket 4.2 04:26:40 10° WNW 04:30:32 25° WSW 04:34:04 12° SSW
Meteor 1-4 Rocket 4.4 04:30:12 14° W 04:31:26 17° WNW 04:33:48 10° NNW
Cosmos 1607 4.0 04:25:06 10° NW 04:31:29 65° WSW 04:37:50 10° SSE
Cosmos 2341 Rocket 4.0 04:25:34 10° S 04:31:58 83° W 04:38:24 10° N
Cosmos 1378 3.8 04:29:42 10° NNW 04:33:09 36° W 04:35:39 16° SSW
USA 161 1.5 04:33:09 10° S 04:36:10 85° W 04:39:07 10° NNW
GENESIS II 4.2 04:32:28 10° NNW 04:36:26 85° NE 04:40:19 10° SE
H-2A R/B 4.1 04:18:23 10° W 04:37:20 31° SW 04:42:20 10° SSE
Cosmos 2333 4.2 04:34:25 14° SSW 04:39:28 79° WNW 04:45:11 10° NNE
Cosmos 2322 Rocket 4.1 04:35:52 10° W 04:39:31 17° NW 04:43:11 10° N
CZ-2D R/B 4.0 04:36:59 10° N 04:41:08 45° WNW 04:44:34 14° SW
SL-16 R/B 3.8 04:40:35 14° SW 04:44:11 22° W 04:48:54 10° NW
Cosmos 1844 3.6 04:42:48 10° NNW 04:48:26 80° WSW 04:54:04 10° SSE
Cosmos 1503 Rocket 4.3 04:43:35 10° NNW 04:48:38 46° WSW 04:53:41 10° S
Cosmos 2218 Rocket 4.2 04:48:13 10° S 04:54:28 79° E 05:00:50 10° N
Cosmos 1674 3.8 04:52:11 10° N 04:55:56 48° E 04:59:40 10° SSE
Cosmos 1340 Rocket 3.5 04:52:49 10° NNW 04:56:26 34° W 05:00:01 10° SSW
Resurs 1-4 Rocket 3.7 04:53:43 10° NNW 04:57:21 19° WNW 05:00:57 10° WSW
ADEOS II 2.2 04:52:10 10° NNE 04:57:28 85° ESE 05:02:43 10° SSW
Cosmos 1356 Rocket 3.3 04:54:02 10° N 04:58:06 86° W 05:02:05 10° S
ERBS 4.2 04:58:43 10° S 05:01:34 24° SE 05:04:25 10° ENE
Cosmos 1805 3.2 04:58:00 10° SSW 05:01:54 74° W 05:05:50 10° N
ARIANE 5 R/B 4.2 04:59:13 10° NNW 05:02:44 19° WNW 05:06:16 10° WSW
Landsat 4 3.9 04:59:24 10° SSE 05:03:06 74° ENE 05:06:50 10° N
PSLV R/B 3.8 05:02:02 10° NNE 05:06:26 78° ESE 05:10:49 10° S
BREEZE-M DEB (TANK) 2.6 05:05:09 10° WSW 05:08:07 90° E 05:14:51 10° ENE
BREEZE-M DEB (TANK) 4.4 05:06:00 10° WNW 05:10:47 81° NNE 05:30:56 10° ESE
Cosmos 1992 Rocket 4.4 05:07:49 10° SW 05:12:49 47° WNW 05:17:51 10° N
Cosmos 1271 Rocket 4.5 05:11:52 10° WSW 05:14:48 19° WNW 05:17:43 10° NNW
Lacrosse 5 rocket 1.6 05:11:28 10° NW 05:15:30 76° NE 05:19:46 10° SE
